Home > Weather > Nesodden > Past weeks

Flag for Norway Weather for the Past 2 Weeks in Nesodden, Norway

Now
46 °F

Passing clouds.


Feels Like: 38 °F
Forecast: 40 / 59 °F
Wind: 26 mph from Southwest

Location: Statfjord B

Current Time: May 4, 2016 at 6:31:10 AM

Latest Report: May 4, 2016 at 5:20 AM


Visibility: N/A

Pressure: 30.07 "Hg

Humidity: 87%

Dew Point: 43 °F

Location of NesoddenLocation

Historic Weather in Nesodden — Graph

°F

Nesodden Temperature Yesterday

Maximum temperature yesterday: 48 °F (at 2:20 PM)
Minimum temperature yesterday: 45 °F (at 12:50 AM)
Average temperature yesterday: 46 °F

High & Low Weather Summary for the Past Weeks

 TemperatureHumidityPressure
High48 °F (Apr 28, 10:50 AM)100% (Apr 20, 2:20 PM)30.33 "Hg (Apr 20, 2:20 PM)
Low30 °F (Apr 23, 6:20 AM)50% (Apr 28, 10:50 AM)29.53 "Hg (May 2, 9:50 AM)
Average42 °F76%29.92 "Hg
* Reported Apr 19 4:20 AM — May 4 4:50 AM, Nesodden, Weather by CustomWeather, © 2016

Note: Actual official high and low records may vary slightly from our data, if they occured in-between our weather recording intervals... More about our weather records

Advertising

Nesodden Weather History for the Previous 24 Hours

Scroll right to see more
 ConditionsComfort  
Time TempWeatherWind HumidityBarometerVisibility
4:50 AM
Wed, May 4
46 °FPassing clouds.28 mph87%30.07 "HgN/A
4:20 AM46 °FPassing clouds.28 mph87%30.04 "HgN/A
3:50 AM45 °FQuite cool.28 mph93%30.04 "HgN/A
3:20 AM46 °FCool.29 mph87%30.04 "HgN/A
2:50 AM46 °FCool.28 mph87%30.01 "HgN/A
2:20 AM46 °FPassing clouds.29 mph87%30.01 "HgN/A
1:50 AM46 °FPassing clouds.30 mph82%30.01 "HgN/A
12:50 AM46 °FCool.30 mph87%30.01 "HgN/A
12:20 AM46 °FCool.25 mph87%29.98 "HgN/A
11:50 PM
Tue, May 3
46 °FCool.29 mph82%29.98 "HgN/A
11:20 PM46 °FPassing clouds.25 mph87%29.98 "HgN/A
10:50 PM46 °FCool.28 mph82%29.95 "HgN/A
10:20 PM46 °FCool.28 mph82%29.95 "HgN/A
9:50 PM46 °FCool.29 mph82%29.92 "HgN/A
9:20 PM46 °FCool.28 mph82%29.92 "HgN/A
8:50 PM46 °FCool.30 mph76%29.89 "HgN/A
8:20 PM46 °FCool.26 mph82%29.89 "HgN/A
7:50 PM46 °FScattered clouds.26 mph76%29.89 "HgN/A
7:20 PM46 °FPartly sunny.28 mph87%29.86 "HgN/A
6:50 PM46 °FPartly sunny.31 mph87%29.86 "HgN/A
6:20 PM46 °FPartly sunny.31 mph82%29.86 "HgN/A
5:50 PM46 °FBroken clouds.32 mph82%29.83 "HgN/A
5:20 PM46 °FScattered clouds.32 mph82%29.83 "HgN/A
4:50 PM45 °FSprinkles. Partly sunny.33 mph81%29.83 "HgN/A
4:20 PM46 °FPartly sunny.31 mph82%29.83 "HgN/A
3:50 PM45 °FSprinkles. Broken clouds.25 mph81%29.83 "HgN/A
3:20 PM46 °FPartly sunny.32 mph76%29.83 "HgN/A
2:50 PM46 °FScattered clouds.30 mph82%29.83 "HgN/A
2:20 PM48 °FScattered clouds.29 mph71%29.80 "HgN/A
1:20 PM45 °FScattered clouds.28 mph76%29.80 "HgN/A
12:50 PM45 °FPartly sunny.28 mph76%29.80 "HgN/A
11:50 AM46 °FPassing clouds.28 mph71%29.77 "HgN/A
11:20 AM46 °FPassing clouds.24 mph76%29.77 "HgN/A
10:50 AM46 °FScattered clouds.23 mph71%29.77 "HgN/A
10:20 AM46 °FPassing clouds.23 mph76%29.77 "HgN/A
9:50 AM46 °FScattered clouds.24 mph76%29.74 "HgN/A
9:20 AM45 °FPassing clouds.23 mph81%29.74 "HgN/A
8:50 AM45 °FPassing clouds.23 mph81%29.74 "HgN/A
8:20 AM45 °FPassing clouds.20 mph87%29.74 "HgN/A
7:50 AM45 °FPassing clouds.20 mph87%29.74 "HgN/A
7:20 AM46 °FPartly sunny.20 mph87%29.74 "HgN/A
6:50 AM45 °FPassing clouds.17 mph93%29.74 "HgN/A
6:20 AM45 °FQuite cool.18 mph87%29.74 "HgN/A
Weather by CustomWeather, © 2016

See weather overviewHow to use our weather pages